Waarnemingen

Advertentie
Mijn weer
Kiruna Airport, Zweden (2044): temperatuur & dauwpunt: 11.10.2018 06:00:00 - 17.10.2018 06:00:00 (CEST)Kiruna Airport, Zweden (2044): windsnelheid: 11.10.2018 06:00:00 - 17.10.2018 06:00:00 (CEST)Kiruna Airport, Zweden (2044): windrichting: 11.10.2018 06:00:00 - 17.10.2018 06:00:00 (CEST)Kiruna Airport, Zweden (2044): luchtdruk: 11.10.2018 06:00:00 - 17.10.2018 06:00:00 (CEST)Kiruna Airport, Zweden (2044): zicht: 11.10.2018 06:00:00 - 17.10.2018 06:00:00 (CEST)
Datum & Tijd tt [°C] td [°C] ff [km/u] ff [kn] dd ppp [hPa] vv [km]
17.10.2018 06:00:00 2,0 0,0 22 12 ZZW - 10
17.10.2018 05:00:00 2,0 0,1 18 10 ZZW 1011,8 10
17.10.2018 04:00:00 0,8 -0,7 13 7 ZZW 1013,1 10
17.10.2018 03:00:00 1,3 -0,5 9 5 Z 1013,5 10
17.10.2018 02:00:00 0,0 -1,1 5 3 ZW 1014,5 10
17.10.2018 01:00:00 1,6 -0,5 8 4 ZW 1014,3 10
17.10.2018 00:00:00 1,7 -0,4 15 8 ZZW 1014,8 10
16.10.2018 23:00:00 2,3 -0,3 9 5 Z 1014,7 10
16.10.2018 22:00:00 3,1 -0,2 21 11 ZW 1014,8 10
16.10.2018 21:00:00 3,3 -0,2 8 4 Z 1015,2 10
16.10.2018 20:00:00 4,0 0,0 13 7 ZW 1014,4 10
16.10.2018 19:00:00 3,7 -0,1 11 6 WZW 1014,6 10
16.10.2018 18:00:00 4,7 -0,1 18 10 WZW 1014,0 10
16.10.2018 17:00:00 4,2 -0,4 15 8 ZW 1013,3 10
16.10.2018 16:00:00 4,9 0,1 16 9 WZW 1012,5 10
16.10.2018 15:00:00 6,2 0,0 18 10 WZW 1011,8 50
16.10.2018 14:00:00 7,4 -0,1 28 15 WZW 1010,9 10
16.10.2018 13:00:00 7,2 0,0 22 12 WZW 1010,2 10
16.10.2018 12:00:00 6,6 -0,2 24 13 W 1009,7 10
16.10.2018 11:00:00 4,3 -0,5 22 12 ZZW 1009,6 10
16.10.2018 10:00:00 2,4 -1,2 18 10 ZW 1009,9 10
16.10.2018 09:00:00 0,9 -1,3 21 11 ZW 1009,6 10
16.10.2018 08:00:00 -1,0 -2,6 15 8 ZW 1009,6 10
16.10.2018 07:00:00 0,0 -1,7 15 8 ZZW 1009,5 10
16.10.2018 06:00:00 0,5 -1,4 15 8 ZW 1009,6 10
16.10.2018 05:00:00 1,1 -1,1 15 8 ZZW 1009,8 10
16.10.2018 04:00:00 -0,8 -1,8 9 5 ZW 1010,4 10
16.10.2018 03:00:00 1,5 -1,1 9 5 ZZW 1010,3 10
16.10.2018 02:00:00 1,8 -0,8 11 6 ZZW 1010,3 10
16.10.2018 01:00:00 1,7 -0,9 16 9 ZW 1010,8 10
16.10.2018 00:00:00 2,0 -0,6 9 5 ZZW 1011,0 10
15.10.2018 23:00:00 2,0 -0,6 11 6 ZZW 1011,3 10
15.10.2018 22:00:00 3,1 -0,5 18 10 ZW 1011,0 10
15.10.2018 21:00:00 2,8 -0,5 5 3 WZW 1011,4 10
15.10.2018 20:00:00 3,7 -0,3 4 2 Z 1011,1 10
15.10.2018 19:00:00 4,3 0,1 13 7 ZW 1011,1 10
15.10.2018 18:00:00 4,6 0,0 16 9 ZW 1011,1 10
15.10.2018 17:00:00 5,1 0,3 13 7 ZW 1011,2 10
15.10.2018 16:00:00 5,6 1,1 5 3 - 1010,9 10
15.10.2018 15:00:00 6,6 0,5 5 3 O 1010,5 10
15.10.2018 14:00:00 7,9 0,6 5 3 - 1010,2 10
15.10.2018 13:00:00 6,8 0,9 9 5 ONO 1009,8 10
15.10.2018 12:00:00 7,0 1,1 8 4 W 1009,0 10
15.10.2018 11:00:00 6,0 1,1 18 10 NNW 1007,9 10
15.10.2018 10:00:00 5,4 0,8 24 13 NNW 1007,1 10
15.10.2018 09:00:00 4,9 1,0 18 10 N 1005,5 10
15.10.2018 08:00:00 5,4 1,5 18 10 N 1004,0 10
15.10.2018 07:00:00 5,5 3,5 21 11 NNW 1002,3 10
15.10.2018 06:00:00 7,0 5,6 15 8 NNW 1000,8 10
15.10.2018 05:00:00 9,0 7,3 8 4 N 998,9 10
15.10.2018 04:00:00 9,4 7,8 13 7 ZW 997,9 10
15.10.2018 03:00:00 9,8 8,1 15 8 ZZW 997,6 10
15.10.2018 02:00:00 11,0 8,6 13 7 ZW 997,5 10
15.10.2018 01:00:00 11,2 8,9 9 5 ZW 997,4 10
15.10.2018 00:00:00 12,0 9,7 15 8 ZW 997,5 10
14.10.2018 23:00:00 12,2 11,1 9 5 ZW 997,1 10
14.10.2018 22:00:00 11,5 10,6 11 6 ZW 997,6 10
14.10.2018 21:00:00 12,6 11,2 26 14 ZZW 997,0 10
14.10.2018 20:00:00 12,1 11,0 26 14 ZZW 997,5 10
14.10.2018 19:00:00 11,2 10,3 21 11 ZZW 998,5 10
14.10.2018 18:00:00 11,2 10,3 31 17 Z 999,0 10
14.10.2018 17:00:00 11,5 10,4 26 14 ZZW 999,3 10
14.10.2018 16:00:00 11,5 10,2 16 9 ZZW 1000,2 10
14.10.2018 15:00:00 11,2 10,3 26 14 ZZW 1000,0 10
14.10.2018 14:00:00 9,5 9,5 0 0 N 1001,2 4,0
14.10.2018 13:00:00 7,7 7,6 4 2 O 1001,9 9
14.10.2018 12:00:00 7,4 7,4 5 3 ZZO 1002,3 10
14.10.2018 11:00:00 6,9 6,9 9 5 ZZO 1003,2 1,4
14.10.2018 10:00:00 6,1 6,0 8 4 Z 1003,8 5
14.10.2018 09:00:00 5,6 5,5 5 3 ZW 1003,8 9
14.10.2018 08:00:00 5,2 5,2 4 2 - 1004,4 1,1
14.10.2018 07:00:00 4,9 4,9 4 2 ZZW 1004,7 0,4
14.10.2018 06:00:00 5,5 5,5 0 0 N 1005,0 0,1
14.10.2018 05:00:00 5,9 5,8 8 4 WZW 1005,3 6
14.10.2018 04:00:00 5,8 5,7 5 3 WZW 1005,8 10
14.10.2018 03:00:00 6,3 5,9 13 7 ZZW 1005,6 9
14.10.2018 02:00:00 6,7 5,8 15 8 ZW 1005,7 10
14.10.2018 01:00:00 6,5 5,3 18 10 ZZW 1006,2 10
14.10.2018 00:00:00 6,2 5,0 16 9 ZZW 1006,0 10
13.10.2018 23:00:00 5,4 4,8 16 9 ZZW 1006,7 10
13.10.2018 22:00:00 5,5 4,9 18 10 ZZW 1006,6 10
13.10.2018 21:00:00 5,1 4,7 22 12 ZZW 1007,2 10
13.10.2018 20:00:00 5,1 4,7 16 9 ZZW 1007,2 10
13.10.2018 19:00:00 5,2 4,9 9 5 ZW 1006,9 10
13.10.2018 18:00:00 5,2 5,1 16 9 ZZW 1007,3 10
13.10.2018 17:00:00 5,3 5,0 11 6 ZZW 1007,4 10
13.10.2018 16:00:00 5,1 5,0 16 9 Z 1007,0 10
13.10.2018 15:00:00 5,0 4,9 15 8 ZW 1007,7 5
13.10.2018 14:00:00 5,0 5,0 15 8 ZZW 1007,5 4,5
13.10.2018 13:00:00 4,6 4,6 13 7 ZZW 1006,1 6
13.10.2018 12:00:00 4,3 4,3 16 9 Z 1007,0 7
13.10.2018 11:00:00 4,3 4,2 21 11 Z 1006,9 7
13.10.2018 10:00:00 3,9 3,9 18 10 Z 1007,9 3,4
13.10.2018 09:00:00 3,6 3,6 16 9 Z 1008,1 9
13.10.2018 08:00:00 3,3 3,3 15 8 Z 1008,5 7
13.10.2018 07:00:00 3,4 3,4 13 7 Z 1009,3 10
13.10.2018 06:00:00 3,0 3,0 15 8 Z 1010,2 4,0
13.10.2018 05:00:00 3,2 3,2 16 9 Z 1010,9 10
13.10.2018 04:00:00 3,1 3,1 13 7 Z 1011,7 10
13.10.2018 03:00:00 3,0 3,0 13 7 Z 1012,6 3,7
13.10.2018 02:00:00 2,9 2,9 9 5 Z 1013,3 6
13.10.2018 01:00:00 2,7 2,7 9 5 Z 1013,5 1,5
13.10.2018 00:00:00 1,2 1,2 4 2 W 1015,0 4,6
12.10.2018 23:00:00 1,1 1,1 0 0 N 1016,3 2,0
12.10.2018 22:00:00 1,0 1,0 2 1 - 1016,8 0,8
12.10.2018 21:00:00 1,1 1,1 4 2 W 1017,1 0,5
12.10.2018 20:00:00 0,9 0,9 0 0 N 1017,3 0,4
12.10.2018 19:00:00 0,8 0,8 2 1 N 1018,1 0,3
12.10.2018 18:00:00 0,8 0,8 0 0 N 1018,9 0,1
12.10.2018 17:00:00 0,8 0,8 4 2 NO 1019,4 0,1
12.10.2018 16:00:00 0,9 0,9 4 2 - 1020,1 0,1
12.10.2018 15:00:00 0,9 0,9 4 2 NO 1020,4 0,5
12.10.2018 14:00:00 0,9 0,9 4 2 NNO 1020,9 0,5
12.10.2018 13:00:00 0,7 0,7 4 2 NNO 1021,6 0,5
12.10.2018 12:00:00 0,6 0,6 4 2 N 1021,8 1,3
12.10.2018 11:00:00 0,5 0,5 5 3 NNO 1021,8 0,7
12.10.2018 10:00:00 0,3 0,3 0 0 N 1021,9 4,2
12.10.2018 09:00:00 -0,9 -0,9 4 2 WZW 1022,0 10
12.10.2018 08:00:00 -2,9 -2,9 0 0 N 1021,9 0,2
12.10.2018 07:00:00 -2,7 -2,8 5 3 ZZW 1021,8 10
12.10.2018 06:00:00 -2,0 -2,0 8 4 ZW 1021,7 10
12.10.2018 05:00:00 -1,3 -1,3 9 5 ZW 1021,6 0,2
12.10.2018 04:00:00 -1,9 -1,9 5 3 NNO 1021,2 10
12.10.2018 03:00:00 -0,8 -0,9 4 2 - 1021,9 10
12.10.2018 02:00:00 -0,7 -0,7 5 3 ZW 1022,1 10
12.10.2018 01:00:00 -0,1 -0,4 2 1 - 1022,0 10
12.10.2018 00:00:00 0,2 0,1 5 3 - 1022,0 10
11.10.2018 23:00:00 0,5 0,2 0 0 N 1022,0 10
11.10.2018 22:00:00 -0,1 -0,5 4 2 - 1022,0 10
11.10.2018 21:00:00 2,0 1,1 9 5 ZW 1022,0 10
11.10.2018 20:00:00 2,8 1,5 0 0 N 1021,7 10
11.10.2018 19:00:00 4,0 2,0 5 3 - 1021,5 10
11.10.2018 18:00:00 4,4 2,1 8 4 ZW 1021,2 10
11.10.2018 17:00:00 4,7 2,1 9 5 Z 1021,1 10
11.10.2018 16:00:00 5,7 2,0 11 6 ZW 1021,0 10
11.10.2018 15:00:00 5,6 1,7 16 9 ZZW 1021,0 10
11.10.2018 14:00:00 6,5 1,4 16 9 ZZW 1021,0 10
11.10.2018 13:00:00 5,3 0,9 8 4 ZW 1021,3 10
11.10.2018 12:00:00 4,2 0,9 8 4 ZZW 1021,8 10
11.10.2018 11:00:00 3,0 0,2 5 3 ZZW 1022,0 10
11.10.2018 10:00:00 2,7 0,1 9 5 ZW 1022,2 10
11.10.2018 09:00:00 2,5 0,1 5 3 WZW 1021,7 10
11.10.2018 08:00:00 1,9 -0,4 8 4 ZW 1021,5 10
11.10.2018 07:00:00 1,8 -0,5 8 4 ZW 1021,3 10
11.10.2018 06:00:00 0,9 -1,2 9 5 W 1021,3 10

tt = temperatuur
td = dauwpunt
ff = windsnelheid
dd = windrichting
ppp = luchtdruk
vv = zicht

Weerstations in de omgeving